Regional Weather Roundup
Issued by NWS

Home | Current Version | Previous Version | Text Only | Print | Product List | Glossary Off
Versions: 1 2 3 4 5 6 7 8 9 10 11 12 13 14 15 16 17 18 19 20 21 22 23 24 25 26 27 28 29 30 31 32 33 34 35 36 37 38 39 40 41 42 43 44 45 46 47 48 49 50

000
ASUS43 KLOT 240600
RWRIL

ILLINOIS REGIONAL WEATHER ROUNDUP
NATIONAL WEATHER SERVICE CHICAGO/ROMEOVILLE IL
100 AM CDT THU JUL 24 2014

NOTE: "FAIR" INDICATES FEW OR NO CLOUDS BELOW 12,000 FEET WITH NO
SIGNIFICANT WEATHER AND/OR OBSTRUCTIONS TO VISIBILITY.

* THESE STATIONS ARE NOT UNDER NWS QUALITY CONTROL. THEY ALSO MAY NOT
  REPORT WEATHER SUCH AS PRECIPITATION OR FOG.

ILZ001-002-007-009-015-016-024-240700-
NORTHWEST ILLINOIS

CITY           SKY/WX    TMP DP  RH WIND       PRES   REMARKS
MOLINE         PTCLDY    62  58  86 E9        30.15S
6HR MIN TEMP:  61; 6HR MAX TEMP:  77;

STERLING*      PTCLDY    57  54  88 E3        30.18S
$$

ILZ003-004-008-010-011-017-018-240700-
NORTH CENTRAL ILLINOIS

CITY           SKY/WX    TMP DP  RH WIND       PRES   REMARKS
ROCKFORD       CLEAR     60  48  64 CALM      30.19S
6HR MIN TEMP:  59; 6HR MAX TEMP:  75;

$$

ILZ005-006-012>014-019>023-240700-
NORTHEAST ILLINOIS

CITY           SKY/WX    TMP DP  RH WIND       PRES   REMARKS
CHICAGO-OHARE  CLEAR     59  49  69 N6        30.14F
6HR MIN TEMP:  59; 6HR MAX TEMP:  67;

CHICAGO-MIDWAY PTCLDY    64  55  72 N8        30.13F
6HR MIN TEMP:  64; 6HR MAX TEMP:  68;

AURORA         CLEAR     55  48  77 NE7       30.15S
6HR MIN TEMP:  54; 6HR MAX TEMP:  71;

WAUKEGAN       CLEAR     54  50  86 NW3       30.15S
6HR MIN TEMP:  54; 6HR MAX TEMP:  63;

DUPAGE AIRPORT CLEAR     54  49  83 N6        30.15S
6HR MIN TEMP:  53; 6HR MAX TEMP:  68;

WHEELING       CLEAR     58  51  78 N5        30.16S
6HR MIN TEMP:  58; 6HR MAX TEMP:  65;

NORTHERLY ISL    N/A     63  56  78 NE12        N/A
$$

LMZ740>746-240700-
SOUTHERN LAKE MICHIGAN

STATION/POSITION SKY/WX   TEMP    WIND        PRES    VSBY  WAVE
                          AIR SEA DIR/SP/G                  HT/PER
                          (F)     (DEG/KT/KT) (MB)    (MI)  (FT/S)
SOUTHERN BUOY              60 59   30/ 10/ 12 1020.5R         3/ 6
WAUKEGAN HARBOR            60     360/  9/ 11 1022.4S
HARRISON CRIB              63      30/ 20/ 22   N/A
BURNHAM HARBOR             62      20/ 10/ 14   N/A
CALUMET HARBOR             64      20/ 10/ 13 1018.9F
MICHIGAN CITY              65      20/ 19/ 21   N/A
MICHIGAN CITY 6N           66 68   50/ 16/ 19   N/A           7/ 2
ST. JOSEPH                 54 49   20/  6/ 10   N/A           4/ 2
$$

ILZ025>027-034>036-040-047-049-050-058-095>099-240700-
WEST-CENTRAL ILLINOIS

CITY           SKY/WX    TMP DP  RH WIND       PRES   REMARKS
QUINCY         CLEAR     62  57  83 N6        30.14S
$$

ILZ028>032-037-038-041>044-048-051>054-059>061-240700-
CENTRAL ILLINOIS

CITY           SKY/WX    TMP DP  RH WIND       PRES   REMARKS
PEORIA         CLEAR     64  54  69 NE3       30.16S
6HR MIN TEMP:  64; 6HR MAX TEMP:  78;

SPRINGFIELD    CLEAR     61  54  77 NE3       30.14F
6HR MIN TEMP:  61; 6HR MAX TEMP:  78;

TAYLORVILLE    NOT AVBL
$$

ILZ033-039-045-046-055>057-062-063-240700-
EAST-CENTRAL ILLINOIS

CITY           SKY/WX    TMP DP  RH WIND       PRES   REMARKS
CHAMPAIGN      CLEAR     59  51  75 N9        30.11F
MATTOON        CLEAR     57  51  80 N8        30.09F
$$

ILZ079-100>102-240700-
SOUTHWEST ILLINOIS

CITY           SKY/WX    TMP DP  RH WIND       PRES   REMARKS
BELLEVILLE     CLEAR     64  58  82 N2        30.10F
CAHOKIA*       CLEAR     67  57  70 NE7       30.11F
$$

ILZ064>066-069>071-074>076-080>082-084>086-088>090-092>094-240700-
SOUTH-CENTRAL ILLINOIS

CITY           SKY/WX    TMP DP  RH WIND       PRES   REMARKS
CARBONDALE     CLEAR     64  56  75 N7        30.08F
6HR MIN TEMP:  64; 6HR MAX TEMP:  80;

MT. VERNON     CLEAR     61  48  63 CALM      30.10S
$$

ILZ067-068-072-073-078-083-087-091-240700-
SOUTHEAST ILLINOIS

CITY           SKY/WX    TMP DP  RH WIND       PRES   REMARKS
LAWRENCEVILLE  CLEAR     59  53  80 N6        30.06F
$$

ABBREVIATIONS USED IN REMARKS
   TC - TEMPERATURE IN CELSIUS
  WCI - WIND CHILL INDEX
   HX - HEAT INDEX
  VSB - VISIBILITY
$$




USA.gov is the U.S. government's official web portal to all federal, state and local government web resources and services.